Weather History for Weslaco, TX

Change the Weather History Date:

Monday, January 9, 2012

  Actual Average (KMFE) Record (KMFE)
Temperature  
Mean Temperature 72 °F 60 °F  
Max Temperature 77 °F 70 °F 90 °F (1952)
Min Temperature 64 °F 50 °F 28 °F (1913)
Degree Days  
Heating Degree Days 0 7  
Month to date heating degree days 63  
Since 1 July heating degree days 300  
Cooling Degree Days 6 2  
Month to date cooling degree days 18  
Year to date cooling degree days 18  
Growing Degree Days 22 (Base 50)    
Moisture  
Dew Point 62 °F    
Average Humidity 74    
Maximum Humidity 88    
Minimum Humidity 50    
Precipitation  
Precipitation 0.00 in 0.03 in 0.44 in (1947)
Month to date precipitation 0.29  
Year to date precipitation 0.29  
Sea Level Pressure  
Sea Level Pressure 29.88 in    
Wind  
Wind Speed 11 mph (SSW)    
Max Wind Speed 21 mph    
Max Gust Speed 29 mph    
Visibility 9 miles    
Events      
T = Trace of Precipitation, MM = Missing Value Source: NWS Daily Summary

Daily Weather History Graph

Daily Weather History Graph

Search for Another Location

Airport:

Trip Planner

Search our weather history database for the weather conditions in past years. The results will help you decide how hot, cold, wet, or windy it might be!

Date:

Astronomy

Jan. 09, 2012 Rise Set
Actual Time 7:20 AM CST 5:57 PM CST
Civil Twilight 6:55 AM CST 6:22 PM CST
Nautical Twilight 6:27 AM CST 6:50 PM CST
Astronomical Twilight 5:59 AM CST 7:18 PM CST
Moon 6:38 PM CST (1/9) 7:26 AM CST (1/9)
Length of Visible Light 11h 26m
Length of Day
10h 36m
Full, 100% of the Moon is Illuminated
Jan 9
Full
Jan 16
Last Quarter
Jan 23
New
Jan 30
First Quarter
Feb 7
Full

Hourly Weather History & Observations

Time (CST) Temp. Dew Point Humidity Pressure Visibility Wind Dir Wind Speed Gust Speed Precip Events Conditions
12:15 AM 69.8 °F 66.2 °F 88% 29.88 in 10.0 mi SSE 8.1 mph - N/A   Overcast
12:35 AM 69.8 °F 66.2 °F 88% 29.87 in 10.0 mi SSE 8.1 mph - N/A   Overcast
1:15 AM 69.8 °F 66.2 °F 88% 29.86 in 10.0 mi SSE 9.2 mph - N/A   Overcast
1:35 AM 69.8 °F 66.2 °F 88% 29.86 in 10.0 mi SSE 10.4 mph - N/A   Mostly Cloudy
1:55 AM 69.8 °F 66.2 °F 88% 29.86 in 10.0 mi SSE 11.5 mph 16.1 mph N/A   Overcast
2:15 AM 69.8 °F 66.2 °F 88% 29.85 in 10.0 mi SSE 11.5 mph - N/A   Overcast
2:35 AM 69.8 °F 66.2 °F 88% 29.85 in 10.0 mi SSE 12.7 mph 17.3 mph N/A   Overcast
2:55 AM 69.8 °F 66.2 °F 88% 29.84 in 10.0 mi SSE 10.4 mph - N/A   Mostly Cloudy
3:15 AM 69.8 °F 66.2 °F 88% 29.84 in 10.0 mi SSE 12.7 mph 16.1 mph N/A   Scattered Clouds
3:35 AM 69.8 °F 66.2 °F 88% 29.84 in 10.0 mi SSE 10.4 mph 18.4 mph N/A   Clear
3:55 AM 69.8 °F 66.2 °F 88% 29.84 in 10.0 mi SSE 9.2 mph - N/A   Mostly Cloudy
4:15 AM 69.8 °F 66.2 °F 88% 29.84 in 7.0 mi SSE 8.1 mph - N/A   Overcast
4:35 AM 69.8 °F 66.2 °F 88% 29.83 in 7.0 mi SSE 8.1 mph - N/A   Overcast
4:55 AM 69.8 °F 66.2 °F 88% 29.83 in 7.0 mi SSE 8.1 mph - N/A   Overcast
5:15 AM 69.8 °F 66.2 °F 88% 29.84 in 7.0 mi SSE 8.1 mph - N/A   Overcast
5:35 AM 69.8 °F 66.2 °F 88% 29.85 in 7.0 mi SSE 9.2 mph - N/A   Overcast
5:55 AM 69.8 °F 66.2 °F 88% 29.86 in 7.0 mi SSE 6.9 mph - N/A   Overcast
6:15 AM 69.8 °F 66.2 °F 88% 29.86 in 7.0 mi SSE 5.8 mph - N/A   Overcast
6:35 AM 69.8 °F 66.2 °F 88% 29.87 in 7.0 mi SSE 5.8 mph - N/A   Overcast
6:55 AM 69.8 °F 66.2 °F 88% 29.88 in 7.0 mi South 4.6 mph - N/A   Overcast
7:15 AM 69.8 °F 66.2 °F 88% 29.88 in 7.0 mi South 5.8 mph - N/A   Overcast
7:35 AM 69.8 °F 66.2 °F 88% 29.88 in 7.0 mi South 5.8 mph - N/A   Overcast
7:55 AM 69.8 °F 66.2 °F 88% 29.89 in 7.0 mi South 8.1 mph - N/A   Overcast
8:15 AM 69.8 °F 66.2 °F 88% 29.90 in 7.0 mi South 6.9 mph - N/A   Overcast
8:35 AM 69.8 °F 66.2 °F 88% 29.90 in 7.0 mi South 6.9 mph - N/A   Overcast
8:55 AM 71.6 °F 66.2 °F 83% 29.91 in 7.0 mi South 8.1 mph - N/A   Overcast
9:15 AM 71.6 °F 68.0 °F 88% 29.91 in 7.0 mi South 9.2 mph - N/A   Mostly Cloudy
10:15 AM 73.4 °F 66.2 °F 78% 29.93 in 10.0 mi SSW 11.5 mph - N/A   Scattered Clouds
10:35 AM 75.2 °F 64.4 °F 69% 29.93 in 10.0 mi SW 11.5 mph 17.3 mph N/A   Overcast
10:55 AM 75.2 °F 64.4 °F 69% 29.93 in 10.0 mi WSW 13.8 mph 17.3 mph N/A   Overcast
11:15 AM 73.4 °F 64.4 °F 73% 29.93 in 10.0 mi West 13.8 mph 18.4 mph N/A   Overcast
11:35 AM 73.4 °F 64.4 °F 73% 29.93 in 10.0 mi WNW 13.8 mph - N/A   Overcast
11:55 AM 77.0 °F 64.4 °F 65% 29.91 in 10.0 mi WNW 12.7 mph - N/A   Mostly Cloudy
12:15 PM 77.0 °F 62.6 °F 61% 29.91 in 10.0 mi NW 11.5 mph 18.4 mph N/A   Mostly Cloudy
12:35 PM 77.0 °F 62.6 °F 61% 29.89 in 10.0 mi NW 16.1 mph - N/A   Overcast
12:55 PM 75.2 °F 62.6 °F 65% 29.89 in 10.0 mi NW 19.6 mph 26.5 mph N/A   Mostly Cloudy
1:15 PM 75.2 °F 60.8 °F 61% 29.89 in 10.0 mi NW 18.4 mph 23.0 mph N/A   Mostly Cloudy
1:35 PM 71.6 °F 59.0 °F 64% 29.88 in 10.0 mi NW 12.7 mph 21.9 mph N/A   Overcast
1:55 PM 73.4 °F 59.0 °F 61% 29.88 in 10.0 mi WNW 18.4 mph 23.0 mph N/A   Mostly Cloudy
2:15 PM 73.4 °F 55.4 °F 53% 29.88 in 10.0 mi NW 18.4 mph 25.3 mph N/A   Mostly Cloudy
2:35 PM 73.4 °F 55.4 °F 53% 29.88 in 10.0 mi NNW 18.4 mph 25.3 mph N/A   Scattered Clouds
2:55 PM 73.4 °F 53.6 °F 50% 29.88 in 10.0 mi NW 20.7 mph 28.8 mph N/A   Clear
3:15 PM 73.4 °F 53.6 °F 50% 29.88 in 10.0 mi NW 18.4 mph 27.6 mph N/A   Clear
3:35 PM 73.4 °F 53.6 °F 50% 29.88 in 10.0 mi NNW 17.3 mph - N/A   Clear
3:55 PM 73.4 °F 53.6 °F 50% 29.88 in 10.0 mi NNW 16.1 mph 25.3 mph N/A   Clear
4:15 PM 73.4 °F 53.6 °F 50% 29.89 in 10.0 mi North 16.1 mph 24.2 mph N/A   Clear
4:35 PM 71.6 °F 51.8 °F 50% 29.90 in 10.0 mi NNW 19.6 mph 25.3 mph N/A   Clear
4:55 PM 69.8 °F 51.8 °F 53% 29.91 in 10.0 mi NNW 19.6 mph 23.0 mph N/A   Clear
5:15 PM 68.0 °F 51.8 °F 56% 29.91 in 10.0 mi North 13.8 mph - N/A   Clear
5:35 PM 68.0 °F 51.8 °F 56% 29.92 in 10.0 mi North 17.3 mph 21.9 mph N/A   Clear
5:55 PM 66.2 °F 51.8 °F 60% 29.93 in 10.0 mi North 17.3 mph 25.3 mph N/A   Clear
6:15 PM 64.4 °F 51.8 °F 64% 29.94 in 10.0 mi North 11.5 mph 21.9 mph N/A   Clear
6:35 PM 62.6 °F 50.0 °F 63% 29.96 in 10.0 mi North 15.0 mph 19.6 mph N/A   Clear
6:55 PM 62.6 °F 50.0 °F 63% 29.97 in 10.0 mi North 13.8 mph 19.6 mph N/A   Clear
7:15 PM 62.6 °F 50.0 °F 63% 29.98 in 10.0 mi North 12.7 mph 20.7 mph N/A   Clear
7:35 PM 60.8 °F 50.0 °F 68% 29.99 in 10.0 mi North 13.8 mph 18.4 mph N/A   Clear
7:55 PM 60.8 °F 50.0 °F 68% 30.00 in 10.0 mi North 12.7 mph - N/A   Clear
8:15 PM 60.8 °F 50.0 °F 68% 30.01 in 10.0 mi North 10.4 mph 16.1 mph N/A   Clear
8:35 PM 59.0 °F 48.2 °F 67% 30.04 in 10.0 mi North 10.4 mph - N/A   Clear
8:55 PM 59.0 °F 48.2 °F 67% 30.05 in 10.0 mi North 11.5 mph - N/A   Clear
9:15 PM 59.0 °F 48.2 °F 67% 30.06 in 10.0 mi NNW 9.2 mph - N/A   Clear
9:35 PM 57.2 °F 46.4 °F 67% 30.08 in 10.0 mi NNW 10.4 mph 18.4 mph N/A   Clear
9:55 PM 55.4 °F 44.6 °F 67% 30.09 in 10.0 mi NNW 12.7 mph 17.3 mph N/A   Clear
10:15 PM 55.4 °F 44.6 °F 67% 30.10 in 10.0 mi NNW 11.5 mph 17.3 mph N/A   Clear
10:35 PM 55.4 °F 44.6 °F 67% 30.10 in 10.0 mi NNW 11.5 mph - N/A   Clear
10:55 PM 53.6 °F 44.6 °F 72% 30.10 in 10.0 mi NNW 10.4 mph - N/A   Clear
11:15 PM 53.6 °F 44.6 °F 72% 30.09 in 10.0 mi NNW 10.4 mph - N/A   Clear
11:55 PM 51.8 °F 44.6 °F 76% 30.09 in 10.0 mi NNW 9.2 mph 18.4 mph N/A   Clear